CW2927 Weather Reports


Display with metric or nautical units.
time (UTC)temp
F
wind
direction
speed
MPH
gust
MPH
rain 1hr
in
rain 24hr
in
rain mn
in
humidity
%
barometer
mb
20210224232921 34 200 0.0 0.0 0.00 0.27 0.27 93 1004.1
20210224232205 34 202 0.0 0.0 0.00 0.27 0.27 93 1004.1
20210224230706 34 219 0.0 0.0 0.00 0.27 0.27 92 1004.5
20210224230208 34 219 0.0 0.0 0.00 0.27 0.27 92 1004.5
20210224224706 34 219 0.0 0.0 0.00 0.27 0.27 91 1004.8
20210224224208 34 219 0.0 0.0 0.00 0.27 0.27 91 1004.7
20210224222929 34 219 0.0 0.0 0.00 0.27 0.27 90 1004.5
20210224222211 35 219 0.0 0.0 0.00 0.27 0.27 90 1004.6
20210224220706 35 219 0.0 0.0 0.00 0.27 0.27 89 1004.9
20210224220207 35 219 0.0 0.0 0.00 0.27 0.27 88 1004.9
20210224214707 36 219 0.0 0.0 0.00 0.28 0.27 87 1005.3
20210224214206 36 220 0.0 3.0 0.01 0.28 0.27 86 1005.4
20210224212905 37 218 0.0 3.0 0.01 0.28 0.27 84 1005.7
20210224212206 37 218 0.0 0.0 0.01 0.28 0.27 83 1005.8
20210224210711 37 217 0.0 0.0 0.01 0.28 0.27 82 1006.1
20210224210210 37 217 1.0 5.0 0.01 0.28 0.27 81 1006.2
20210224204705 38 245 1.0 5.0 0.01 0.28 0.27 79 1006.5
20210224204206 38 313 0.0 0.0 0.00 0.28 0.26 79 1006.5
20210224202854 38 313 0.0 0.0 0.01 0.28 0.26 79 1006.9
20210224202209 38 313 0.0 3.0 0.01 0.28 0.26 79 1007.1
20210224200710 38 313 1.0 3.0 0.01 0.28 0.26 78 1007.5
20210224200209 38 313 1.0 8.0 0.01 0.28 0.26 78 1007.5
20210224194708 39 328 1.0 5.0 0.02 0.28 0.26 77 1008.0
20210224194206 39 303 4.0 8.0 0.02 0.28 0.26 76 1008.0
20210224192909 39 255 1.0 7.0 0.01 0.28 0.25 76 1008.3
20210224192208 39 244 2.0 12.0 0.02 0.28 0.25 76 1008.4
20210224190718 38 249 3.0 8.0 0.02 0.28 0.25 76 1008.7
20210224190209 39 238 3.0 10.0 0.02 0.28 0.25 76 1008.8
20210224184706 38 273 4.0 8.0 0.02 0.28 0.24 76 1008.9
20210224184208 38 269 3.0 10.0 0.02 0.28 0.24 76 1009.0
20210224182830 39 238 5.0 9.0 0.02 0.28 0.24 78 1009.2
20210224182206 39 239 3.0 12.0 0.02 0.27 0.24 78 1009.3
20210224180710 39 267 4.0 8.0 0.02 0.27 0.24 79 1009.3
20210224180206 39 244 3.0 10.0 0.03 0.27 0.24 80 1009.5
20210224174709 38 256 5.0 10.0 0.03 0.26 0.23 80 1009.7
20210224174212 38 245 5.0 12.0 0.04 0.26 0.23 79 1009.8
20210224172802 39 253 5.0 9.0 0.05 0.25 0.22 79 1009.9
20210224172208 39 256 6.0 10.0 0.05 0.25 0.22 79 1009.9
20210224170708 39 266 6.0 14.0 0.06 0.24 0.21 78 1010.2
20210224170210 40 247 6.0 12.0 0.06 0.24 0.20 77 1010.2
20210224164710 40 249 5.0 12.0 0.06 0.23 0.20 78 1010.5
20210224164206 40 263 6.0 10.0 0.06 0.22 0.19 78 1010.4
20210224162727 39 246 5.0 9.0 0.05 0.20 0.17 81 1010.5
20210224162209 39 229 4.0 9.0 0.05 0.20 0.17 80 1010.5
20210224160706 39 219 6.0 12.0 0.04 0.19 0.16 81 1010.9
20210224160205 39 249 5.0 10.0 0.04 0.18 0.15 82 1011.0
20210224154706 38 267 2.0 5.0 0.04 0.17 0.14 83 1011.1
20210224154206 37 283 4.0 12.0 0.03 0.17 0.13 83 1011.2
20210224152722 37 278 6.0 9.0 0.04 0.16 0.13 83 1011.4
20210224152208 37 278 5.0 12.0 0.04 0.16 0.13 83 1011.4
20210224150712 37 272 6.0 10.0 0.05 0.15 0.12 83 1011.5
20210224150205 37 280 6.0 10.0 0.04 0.14 0.11 83 1011.5
20210224144706 37 279 6.0 10.0 0.04 0.13 0.10 83 1011.6
20210224144209 37 267 6.0 9.0 0.04 0.13 0.10 82 1011.6
20210224142903 38 260 2.0 6.0 0.03 0.12 0.09 83 1011.4
20210224142205 38 276 5.0 7.0 0.03 0.12 0.09 84 1011.3
20210224140707 36 300 2.0 7.0 0.02 0.10 0.07 86 1011.3
20210224140209 36 297 3.0 6.0 0.02 0.10 0.07 87 1011.2
20210224134705 35 275 6.0 12.0 0.01 0.09 0.06 87 1011.6
20210224134205 35 290 5.0 12.0 0.01 0.09 0.06 88 1011.7
20210224132937 34 292 5.0 10.0 0.00 0.09 0.06 89 1011.7
20210224132205 34 287 3.0 12.0 0.00 0.09 0.06 89 1011.6
20210224130709 34 292 6.0 12.0 0.01 0.09 0.06 90 1011.4
20210224130214 34 284 5.0 12.0 0.01 0.09 0.06 90 1011.3
20210224124707 34 296 6.0 8.0 0.01 0.09 0.06 90 1011.0
20210224124209 34 289 6.0 12.0 0.01 0.09 0.06 91 1011.0
20210224122933 34 279 5.0 10.0 0.01 0.09 0.06 91 1010.5
20210224122208 34 289 5.0 13.0 0.01 0.09 0.06 91 1010.4
20210224120707 34 311 5.0 9.0 0.00 0.08 0.05 92 1009.9
20210224120205 34 290 5.0 9.0 0.00 0.08 0.05 92 1009.9
20210224114714 34 279 4.0 9.0 0.00 0.08 0.05 92 1009.8
20210224114206 34 289 6.0 13.0 0.00 0.08 0.05 93 1009.6
20210224112723 34 296 5.0 8.0 0.00 0.08 0.05 93 1009.2
20210224112206 34 309 5.0 10.0 0.00 0.08 0.05 93 1009.2
20210224110708 33 287 5.0 8.0 0.00 0.08 0.05 93 1009.0
20210224110214 33 280 3.0 8.0 0.01 0.08 0.05 94 1008.9
20210224104712 33 275 3.0 7.0 0.01 0.08 0.05 93 1008.6
20210224104206 34 281 3.0 7.0 0.01 0.08 0.05 93 1008.5
20210224102811 34 308 4.0 8.0 0.02 0.08 0.05 94 1008.2
20210224102208 34 305 5.0 12.0 0.02 0.08 0.05 94 1008.0
20210224100705 35 302 4.0 10.0 0.02 0.08 0.05 95 1007.8
20210224100209 35 292 5.0 10.0 0.01 0.07 0.04 95 1007.9
20210224094710 35 297 4.0 8.0 0.01 0.07 0.04 95 1007.4
20210224094206 35 278 3.0 10.0 0.01 0.07 0.04 95 1007.4
20210224092720 35 281 5.0 9.0 0.01 0.06 0.03 95 1007.2
20210224092206 35 274 5.0 10.0 0.01 0.06 0.03 95 1007.2
20210224090705 34 284 4.0 10.0 0.01 0.06 0.03 95 1006.9
20210224090205 34 286 6.0 13.0 0.01 0.06 0.03 95 1006.6
20210224084713 34 286 7.0 12.0 0.01 0.06 0.03 95 1006.5
20210224084205 34 277 6.0 12.0 0.01 0.06 0.03 95 1006.3
20210224082808 34 263 3.0 7.0 0.00 0.06 0.02 95 1006.1
20210224082209 34 262 3.0 8.0 0.00 0.06 0.02 95 1006.1
20210224080705 34 232 3.0 7.0 0.00 0.06 0.02 95 1005.9
20210224080206 34 245 3.0 8.0 0.00 0.06 0.02 95 1005.8
20210224074706 34 258 3.0 6.0 0.00 0.06 0.02 95 1005.6
20210224074210 34 247 4.0 8.0 0.01 0.06 0.02 95 1005.5
20210224072816 34 267 3.0 7.0 0.01 0.06 0.02 95 1005.3
20210224072205 34 274 5.0 9.0 0.01 0.06 0.02 95 1005.3
20210224070706 34 275 4.0 7.0 0.02 0.06 0.02 95 1005.0
20210224070208 34 282 6.0 10.0 0.02 0.06 0.02 95 1005.0
20210224064705 35 270 4.0 9.0 0.02 0.06 0.02 95 1004.9
20210224064206 35 266 3.0 12.0 0.01 0.05 0.02 95 1004.8
20210224062756 35 296 6.0 9.0 0.02 0.05 0.02 95 1004.7
20210224062205 34 286 5.0 12.0 0.02 0.05 0.02 95 1004.7
20210224060710 34 281 5.0 7.0 0.01 0.04 0.01 95 1004.4
20210224060208 34 281 5.0 10.0 0.01 0.04 0.01 95 1004.4
20210224054709 34 278 4.0 7.0 0.01 0.04 0.01 95 1004.1
20210224054205 34 276 4.0 13.0 0.01 0.04 0.01 95 1004.1
20210224052911 34 291 5.0 9.0 0.00 0.03 0.00 95 1004.0
20210224052208 34 273 6.0 12.0 0.00 0.03 0.00 95 1003.8
20210224050706 34 292 5.0 9.0 0.00 0.03 0.00 95 1003.7
20210224050208 34 290 3.0 10.0 0.00 0.03 0.00 95 1003.6
20210224044706 34 290 5.0 10.0 0.00 0.03 0.03 95 1003.4
20210224044205 34 301 3.0 9.0 0.00 0.03 0.03 95 1003.3
20210224042721 34 291 5.0 8.0 0.00 0.03 0.03 95 1003.2
20210224042205 34 277 4.0 9.0 0.00 0.03 0.03 95 1003.1
20210224040709 34 286 4.0 8.0 0.00 0.03 0.03 95 1002.8
20210224040210 34 288 6.0 9.0 0.00 0.03 0.03 95 1002.8
20210224034715 34 277 3.0 8.0 0.00 0.03 0.03 95 1002.5
20210224034206 34 281 6.0 12.0 0.00 0.03 0.03 95 1002.5
20210224032751 34 293 5.0 12.0 0.00 0.03 0.03 95 1002.4
20210224032207 34 279 5.0 12.0 0.00 0.03 0.03 95 1002.3
20210224030706 34 297 4.0 8.0 0.00 0.03 0.03 95 1002.2
20210224030205 34 303 5.0 10.0 0.00 0.03 0.03 95 1002.2
20210224024705 34 299 5.0 10.0 0.00 0.03 0.03 95 1002.0
20210224024206 34 280 6.0 12.0 0.00 0.03 0.03 95 1002.0
20210224022846 34 325 4.0 9.0 0.00 0.03 0.03 95 1001.6
20210224022206 34 322 5.0 9.0 0.00 0.03 0.03 95 1001.5
20210224020705 34 297 5.0 9.0 0.00 0.03 0.03 94 1001.4
20210224020209 34 301 5.0 12.0 0.00 0.03 0.03 94 1001.3
20210224014706 34 304 3.0 9.0 0.00 0.03 0.03 94 1001.1
20210224014208 34 288 5.0 10.0 0.00 0.03 0.03 94 1001.0
20210224012913 34 264 4.0 8.0 0.00 0.03 0.03 94 1000.7
20210224012209 34 284 4.0 8.0 0.00 0.03 0.03 94 1000.7
20210224010705 34 269 2.0 6.0 0.00 0.03 0.03 93 1000.3
20210224010210 33 253 2.0 6.0 0.00 0.03 0.03 93 1000.3
20210224004705 33 241 2.0 6.0 0.00 0.03 0.03 93 1000.2
20210224004206 33 257 1.0 6.0 0.00 0.03 0.03 93 1000.1
20210224002753 33 243 1.0 5.0 0.00 0.03 0.03 92 1000.0
20210224002205 34 239 1.0 5.0 0.00 0.03 0.03 92 1000.0
20210224000705 34 265 2.0 5.0 0.00 0.03 0.03 92 999.9
20210224000207 34 275 2.0 6.0 0.00 0.03 0.03 91 999.9
20210223234705 34 259 2.0 5.0 0.00 0.03 0.03 90 999.7
20210223234206 34 293 1.0 7.0 0.00 0.03 0.03 90 999.7